Hourly Weather Bolshie Rogatki

Today, 20 June, Sunday

Time Temperature Precipitation Wind Pressure Humidity
00:00 +18°C° 0 mm 2 mps 756 mmHg 87%
01:00 +18°C° 0 mm 2 mps 756 mmHg 90%
02:00 +18°C° 0 mm 2 mps 756 mmHg 92%
03:00 +18°C° 0 mm 2 mps 756 mmHg 91%
04:00 +19°C° 0 mm 2 mps 756 mmHg 90%
05:00 +19°C° 0 mm 2 mps 756 mmHg 89%
06:00 +21°C° 0 mm 2 mps 756 mmHg 80%
07:00 +25°C° 0 mm 2 mps 756 mmHg 72%
08:00 +27°C° 0 mm 2 mps 756 mmHg 62%
09:00 +28°C° 0 mm 3 mps 756 mmHg 56%
10:00 +29°C° 0 mm 3 mps 756 mmHg 50%
11:00 +31°C° 0 mm 3 mps 755 mmHg 44%
12:00 +31°C° 0 mm 3 mps 755 mmHg 42%
13:00 +33°C° 0 mm 3 mps 755 mmHg 40%
14:00 +34°C° 0 mm 3 mps 755 mmHg 39%
15:00 +33°C° 0 mm 3 mps 755 mmHg 44%
16:00 +31°C° 0 mm 2 mps 754 mmHg 50%
17:00 +29°C° 0 mm 2 mps 754 mmHg 55%
18:00 +28°C° 0.1 mm 2 mps 754 mmHg 63%
19:00 +27°C° 0.1 mm 2 mps 754 mmHg 70%
20:00 +26°C° 0.1 mm 1 mps 754 mmHg 77%
21:00 +24°C° 0.1 mm 2 mps 754 mmHg 81%
22:00 +23°C° 0.1 mm 2 mps 754 mmHg 85%
23:00 +21°C° 0.1 mm 2 mps 754 mmHg 89%

Tomorrow, 21 June, Monday

Time Temperature Precipitation Wind Pressure Humidity
00:00 +21°C° 0.1 mm 2 mps 754 mmHg 91%
01:00 +20°C° 0.1 mm 2 mps 754 mmHg 93%
02:00 +20°C° 0.1 mm 2 mps 754 mmHg 96%
03:00 +20°C° 0 mm 2 mps 754 mmHg 95%
04:00 +21°C° 0 mm 2 mps 754 mmHg 94%
05:00 +21°C° 0 mm 2 mps 754 mmHg 93%
06:00 +24°C° 0 mm 2 mps 754 mmHg 84%
07:00 +25°C° 0 mm 3 mps 754 mmHg 74%
08:00 +27°C° 0 mm 3 mps 754 mmHg 64%
09:00 +28°C° 0 mm 3 mps 754 mmHg 57%
10:00 +30°C° 0 mm 3 mps 754 mmHg 50%
11:00 +31°C° 0 mm 3 mps 754 mmHg 43%
12:00 +33°C° 0 mm 3 mps 754 mmHg 40%
13:00 +34°C° 0 mm 3 mps 754 mmHg 38%
14:00 +35°C° 0 mm 3 mps 754 mmHg 35%
15:00 +34°C° 0 mm 3 mps 753 mmHg 37%
16:00 +34°C° 0 mm 3 mps 753 mmHg 39%
17:00 +34°C° 0 mm 3 mps 753 mmHg 40%
18:00 +30°C° 0 mm 3 mps 753 mmHg 50%
19:00 +28°C° 0 mm 2 mps 753 mmHg 59%
20:00 +26°C° 0 mm 2 mps 753 mmHg 68%
21:00 +24°C° 0 mm 2 mps 753 mmHg 71%
22:00 +23°C° 0 mm 2 mps 753 mmHg 75%
23:00 +21°C° 0 mm 2 mps 753 mmHg 78%

Day after tomorrow, 22 June, Tuesday

Time Temperature Precipitation Wind Pressure Humidity
00:00 +20°C° 0 mm 2 mps 753 mmHg 80%
01:00 +20°C° 0 mm 2 mps 753 mmHg 82%
02:00 +20°C° 0 mm 2 mps 753 mmHg 84%
03:00 +20°C° 0 mm 2 mps 753 mmHg 85%
04:00 +20°C° 0 mm 2 mps 753 mmHg 86%
05:00 +20°C° 0 mm 2 mps 753 mmHg 86%
06:00 +22°C° 0 mm 3 mps 753 mmHg 79%
07:00 +26°C° 0 mm 3 mps 753 mmHg 72%
08:00 +28°C° 0 mm 4 mps 753 mmHg 65%
09:00 +29°C° 0 mm 4 mps 753 mmHg 59%
10:00 +30°C° 0 mm 4 mps 753 mmHg 54%
11:00 +32°C° 0 mm 5 mps 753 mmHg 48%
12:00 +33°C° 0 mm 5 mps 752 mmHg 46%
13:00 +33°C° 0 mm 5 mps 752 mmHg 44%
14:00 +34°C° 0 mm 5 mps 752 mmHg 42%
15:00 +33°C° 0 mm 4 mps 752 mmHg 47%
16:00 +31°C° 0 mm 3 mps 752 mmHg 51%
17:00 +31°C° 0 mm 3 mps 752 mmHg 56%
18:00 +29°C° 0.1 mm 2 mps 752 mmHg 63%
19:00 +28°C° 0.1 mm 2 mps 752 mmHg 71%
20:00 +26°C° 0.1 mm 2 mps 752 mmHg 79%
21:00 +25°C° 0.1 mm 2 mps 752 mmHg 81%
22:00 +24°C° 0.1 mm 2 mps 752 mmHg 84%
23:00 +24°C° 0.1 mm 2 mps 753 mmHg 87%

23 June, Wednesday

Time Temperature Precipitation Wind Pressure Humidity
00:00 +23°C° 0 mm 2 mps 753 mmHg 89%
01:00 +23°C° 0 mm 2 mps 753 mmHg 91%
02:00 +21°C° 0 mm 2 mps 753 mmHg 93%
03:00 +23°C° 0 mm 2 mps 753 mmHg 92%
04:00 +23°C° 0 mm 2 mps 753 mmHg 91%
05:00 +23°C° 0 mm 2 mps 753 mmHg 90%
06:00 +25°C° 0 mm 2 mps 754 mmHg 81%
07:00 +27°C° 0 mm 2 mps 754 mmHg 71%
08:00 +28°C° 0 mm 3 mps 754 mmHg 62%
09:00 +30°C° 0 mm 3 mps 754 mmHg 54%
10:00 +31°C° 0 mm 3 mps 754 mmHg 46%
11:00 +34°C° 0 mm 3 mps 754 mmHg 39%
12:00 +34°C° 0 mm 3 mps 754 mmHg 36%
13:00 +35°C° 0 mm 3 mps 754 mmHg 34%
14:00 +35°C° 0 mm 3 mps 754 mmHg 32%
15:00 +35°C° 0 mm 3 mps 754 mmHg 35%
16:00 +35°C° 0 mm 3 mps 754 mmHg 37%
17:00 +35°C° 0 mm 3 mps 754 mmHg 40%
18:00 +31°C° 0 mm 2 mps 754 mmHg 48%
19:00 +29°C° 0 mm 2 mps 754 mmHg 57%
20:00 +27°C° 0 mm 1 mps 754 mmHg 66%
21:00 +26°C° 0.2 mm 1 mps 754 mmHg 72%
22:00 +24°C° 0.2 mm 1 mps 754 mmHg 78%
23:00 +23°C° 0.2 mm 1 mps 754 mmHg 84%

24 June, Thursday

Time Temperature Precipitation Wind Pressure Humidity
00:00 +23°C° 0.4 mm 1 mps 754 mmHg 87%
01:00 +22°C° 0.4 mm 1 mps 754 mmHg 90%
02:00 +22°C° 0.4 mm 1 mps 754 mmHg 93%
03:00 +22°C° 0 mm 1 mps 754 mmHg 93%
04:00 +22°C° 0 mm 1 mps 753 mmHg 93%
05:00 +23°C° 0 mm 1 mps 753 mmHg 93%
06:00 +24°C° 0.1 mm 1 mps 753 mmHg 86%
07:00 +26°C° 0.1 mm 1 mps 753 mmHg 80%
08:00 +28°C° 0.1 mm 2 mps 753 mmHg 74%
09:00 +29°C° 0.4 mm 2 mps 753 mmHg 69%
10:00 +30°C° 0.4 mm 3 mps 753 mmHg 64%
11:00 +33°C° 0.4 mm 3 mps 753 mmHg 59%
12:00 +33°C° 0.3 mm 3 mps 753 mmHg 57%
13:00 +33°C° 0.3 mm 4 mps 752 mmHg 54%
14:00 +33°C° 0.3 mm 4 mps 752 mmHg 52%
15:00 +30°C° 0.5 mm 3 mps 752 mmHg 61%
16:00 +28°C° 0.5 mm 3 mps 752 mmHg 71%
17:00 +26°C° 0.5 mm 2 mps 752 mmHg 81%
18:00 +25°C° 0.5 mm 2 mps 752 mmHg 84%
19:00 +25°C° 0.5 mm 1 mps 752 mmHg 88%
20:00 +22°C° 0.5 mm 0 mps 752 mmHg 91%
21:00 +23°C° 0.2 mm 1 mps 752 mmHg 92%
22:00 +22°C° 0.2 mm 1 mps 752 mmHg 94%
23:00 +22°C° 0.2 mm 1 mps 752 mmHg 96%

25 June, Friday

Time Temperature Precipitation Wind Pressure Humidity
00:00 +22°C° 0.3 mm 1 mps 751 mmHg 95%
01:00 +21°C° 0.3 mm 1 mps 751 mmHg 95%
02:00 +21°C° 0.3 mm 1 mps 751 mmHg 95%
03:00 +21°C° 0.2 mm 1 mps 751 mmHg 95%
04:00 +22°C° 0.2 mm 1 mps 750 mmHg 94%
05:00 +22°C° 0.2 mm 1 mps 750 mmHg 94%
06:00 +23°C° 0.3 mm 1 mps 750 mmHg 91%
07:00 +24°C° 0.3 mm 2 mps 750 mmHg 89%
08:00 +25°C° 0.3 mm 2 mps 750 mmHg 86%
09:00 +27°C° 0.9 mm 2 mps 750 mmHg 80%
10:00 +29°C° 0.9 mm 2 mps 749 mmHg 74%
11:00 +30°C° 0.9 mm 3 mps 749 mmHg 68%
12:00 +30°C° 0.6 mm 3 mps 749 mmHg 65%
13:00 +31°C° 0.6 mm 3 mps 748 mmHg 62%
14:00 +31°C° 0.6 mm 3 mps 748 mmHg 58%
15:00 +31°C° 0.2 mm 3 mps 748 mmHg 59%
16:00 +31°C° 0.2 mm 3 mps 747 mmHg 59%
17:00 +31°C° 0.2 mm 3 mps 747 mmHg 59%
18:00 +29°C° 0.2 mm 3 mps 747 mmHg 66%
19:00 +28°C° 0.2 mm 2 mps 747 mmHg 73%
20:00 +26°C° 0.2 mm 2 mps 747 mmHg 79%
21:00 +25°C° 0.4 mm 1 mps 747 mmHg 84%
22:00 +24°C° 0.4 mm 1 mps 747 mmHg 89%
23:00 +23°C° 0.4 mm 1 mps 747 mmHg 93%
Show more